Regional Weather Roundup
Issued by NWS

Home | Current Version | Previous Version | Graphics & Text | Print | Product List | Glossary On
Versions: 1 2 3 4 5 6 7 8 9 10 11 12 13 14 15 16 17 18 19 20 21 22 23 24 25 26 27 28 29 30 31 32 33 34 35 36 37 38 39 40 41 42 43 44 45 46 47 48 49 50
000
ASUS43 KIND 020059
RWRIN

WEATHER ROUNDUP FOR INDIANA
NATIONAL WEATHER SERVICE INDIANAPOLIS IN
900 PM EDT MON SEP 01 2014

NOTE: "FAIR" INDICATES FEW OR NO CLOUDS BELOW 12,000 FEET WITH NO
SIGNIFICANT WEATHER AND/OR OBSTRUCTIONS TO VISIBILITY.

* - STATION DOES NOT REPORT WEATHER SUCH AS PRECIPITATION OR FOG.

+ - STATION NOT QUALITY CONTROLLED BY THE NATIONAL WEATHER SERVICE.
    USE DATA WITH CAUTION...ESPECIALLY DEWPOINT AND RELATIVE
    HUMIDITY OBSERVATIONS.

INZ001>003-010>013-019-020-020200-
NORTHWEST INDIANA

CITY           SKY/WX    TMP DP  RH WIND       PRES   REMARKS
GARY /AIRPORT/ PTCLDY    79  66  65 SW9       29.81S
KNOX *+        PTCLDY    73  66  80 SW5       29.83R
MONTICELLO +   PTCLDY    72  66  82 SW6       29.85R
VALPARAISO     PTCLDY    75  65  70 SW8       29.83S

$$

LMZ046-743>745-020200-
SOUTHERN LAKE MICHIGAN

STATION/POSITION TIME  TEMP WIND        PRES
                       AIR  DIR/SP/G
                 (UTC) (F)  (DEG/KT/KT) (MB)
MICHIGAN CITY    0000   78  200/ 14/ 17   N/A

$$

INZ004-005-014>016-021>024-020200-
NORTH CENTRAL INDIANA

CITY           SKY/WX    TMP DP  RH WIND       PRES   REMARKS
ELKHART        CLEAR     75  68  78 SW7       29.83
GOSHEN         CLEAR     77  66  68 SW10      29.83R
SOUTH BEND     PTCLDY    75  65  70 SW6       29.83R

$$

INZ006>009-017-018-025>027-020200-
NORTHEAST INDIANA

CITY           SKY/WX    TMP DP  RH WIND       PRES   REMARKS
ANGOLA *+      CLEAR     75  68  78 SW5       29.83R
FORT WAYNE     PTCLDY    74  69  85 SW9       29.85S

$$

INZ028-029-035-036-043>045-051>053-020200-
WEST CENTRAL INDIANA

CITY           SKY/WX    TMP DP  RH WIND       PRES   REMARKS
GREENCASTLE +  MOCLDY    73  68  83 CALM      29.91S
LAFAYETTE      PTCLDY    73  65  75 SW6       29.86S
TERRE HAUTE    PTCLDY    75  66  73 S7        29.91R

$$

INZ030>032-037>040-046>048-054>057-064-065-020200-
CENTRAL INDIANA

CITY           SKY/WX    TMP DP  RH WIND       PRES   REMARKS
COLUMBUS       CLEAR     75  72  88 SW9       29.92R
FRANKFORT +    MOCLDY    72  65  80 SW6       29.89F
INDIANAPOLIS   MOCLDY    76  69  79 SW7       29.90R
-EAGLE CREEK   PTCLDY    76  66  71 SW5       29.90R
KOKOMO *+      PTCLDY    75  64  69 W14       29.87R
MT COMFORT *+  PTCLDY    77  75  94 SW9       29.91R
SHELBYVILLE    PTCLDY    75  70  84 SW6       29.91R

$$

INZ033-034-041-042-049-050-058-059-020200-
EAST CENTRAL INDIANA

CITY           SKY/WX    TMP DP  RH WIND       PRES   REMARKS
MUNCIE         PTCLDY    78  68  71 SW7       29.89R

$$

INZ060-061-067>069-081>083-085>088-020200-
SOUTHWEST INDIANA

CITY           SKY/WX    TMP DP  RH WIND       PRES   REMARKS
EVANSVILLE     PTCLDY    79  72  79 SW7       29.95S

$$

INZ062-063-066-070>080-084-089>092-020200-
SOUTH CENTRAL AND SOUTHEAST INDIANA

CITY           SKY/WX    TMP DP  RH WIND       PRES   REMARKS
BLOOMINGTON    PTCLDY    75  70  84 SW7       29.93R

$$




USA.gov is the U.S. government's official web portal to all federal, state and local government web resources and services.